Kirksville, MO

4:38 PM CST on February 26, 2017 (GMT -0600)
Kirksville Regional

Weather History for KIRK - April, 2013

Change the Weather History Date:

Friday, April 26, 2013

  Actual Average Record
Temperature  
Mean Temperature 54 °F 55 °F  
Max Temperature 61 °F 66 °F 88 °F (1987)
Min Temperature 46 °F 44 °F 30 °F (1919)
Degree Days  
Heating Degree Days 11 10  
Month to date heating degree days 456 365  
Since 1 July heating degree days 5818 5652  
Cooling Degree Days 0 0  
Month to date cooling degree days 3 0  
Year to date cooling degree days 3 0  
Growing Degree Days 4 (Base 50)    
Moisture  
Dew Point 42 °F    
Average Humidity 68    
Maximum Humidity 86    
Minimum Humidity 50    
Precipitation  
Precipitation 0.00 in 0.16 in 0.68 in (1999)
Month to date precipitation 6.79 3.14  
Year to date precipitation 15.58 8.49  
Sea Level Pressure  
Sea Level Pressure 30.25 in    
Wind  
Wind Speed 11 mph (South)    
Max Wind Speed 24 mph    
Max Gust Speed 33 mph    
Visibility 10 miles    
Events      
T = Trace of Precipitation, MM = Missing Value Source: NWS Daily Summary

Daily Weather History Graph

Daily Weather History Graph

Search for Another Location

Airport or City:

Trip Planner

Search our weather history database for the weather conditions in past years. The results will help you decide how hot, cold, wet, or windy it might be!

Date:

Astronomy

Apr. 26, 2013 Rise Set
Actual Time 6:16 AM CDT 8:00 PM CDT
Civil Twilight 5:47 AM CDT 8:29 PM CDT
Nautical Twilight 5:12 AM CDT 9:04 PM CDT
Astronomical Twilight 4:34 AM CDT 9:42 PM CDT
Moon 9:23 PM CDT 6:44 AM CDT
Length of Visible Light 14h 42m
Length of Day
13h 44m
Full, 99% of the Moon is Illuminated
Apr 26
Full
May 2
Last Quarter
May 9
New
May 17
First Quarter
May 24
Full

Hourly Weather History & Observations

Time (CDT) Temp. Dew Point Humidity Pressure Visibility Wind Dir Wind Speed Gust Speed Precip Events Conditions
12:55 AM 48.0 °F 37.0 °F 66% 30.25 in 10.0 mi SE 11.5 mph - N/A   Clear
1:55 AM 48.2 °F 37.4 °F 66% 30.21 in 10.0 mi SE 9.2 mph - N/A   Clear
2:55 AM 48.9 °F 37.9 °F 66% 30.23 in 10.0 mi SSE 8.1 mph - N/A   Partly Cloudy
3:55 AM 52.0 °F 36.0 °F 54% 30.22 in 10.0 mi South 10.4 mph - N/A   Mostly Cloudy
4:55 AM 54.0 °F 35.1 °F 49% 30.22 in 10.0 mi South 11.5 mph - N/A   Overcast
5:55 AM 54.0 °F 36.0 °F 51% 30.21 in 10.0 mi South 11.5 mph - N/A   Overcast
6:55 AM 55.9 °F 37.9 °F 51% 30.22 in 10.0 mi SSW 17.3 mph 26.5 mph N/A   Mostly Cloudy
7:55 AM 53.1 °F 43.0 °F 69% 30.26 in 10.0 mi SSW 18.4 mph 26.5 mph N/A   Overcast
8:55 AM 54.0 °F 45.0 °F 72% 30.28 in 10.0 mi SSW 11.5 mph 20.7 mph N/A   Mostly Cloudy
9:55 AM 55.0 °F 44.1 °F 67% 30.29 in 10.0 mi SSW 9.2 mph - N/A   Overcast
10:55 AM 55.9 °F 42.1 °F 60% 30.31 in 10.0 mi South 20.7 mph 28.8 mph N/A   Overcast
11:55 AM 59.0 °F 42.1 °F 53% 30.30 in 10.0 mi South 16.1 mph 27.6 mph N/A   Overcast
12:55 PM 59.0 °F 45.0 °F 60% 30.28 in 10.0 mi South 19.6 mph 25.3 mph N/A   Clear
1:55 PM 59.0 °F 45.0 °F 60% 30.26 in 10.0 mi SSW 16.1 mph 23.0 mph N/A   Clear
2:55 PM 60.1 °F 46.9 °F 62% 30.25 in 10.0 mi South 17.3 mph 25.3 mph N/A   Partly Cloudy
3:55 PM 57.9 °F 46.9 °F 67% 30.22 in 10.0 mi South 16.1 mph 23.0 mph N/A   Mostly Cloudy
4:55 PM 55.9 °F 46.9 °F 72% 30.24 in 10.0 mi SSW 10.4 mph - N/A   Overcast
5:29 PM 57.2 °F 46.4 °F 67% 30.22 in 10.0 mi SSW 10.4 mph 19.6 mph N/A   Overcast
5:55 PM 55.9 °F 46.0 °F 69% 30.24 in 10.0 mi South 10.4 mph - N/A   Overcast
6:55 PM 55.0 °F 45.0 °F 69% 30.25 in 10.0 mi South 10.4 mph - N/A   Overcast
7:55 PM 54.0 °F 44.1 °F 69% 30.26 in 10.0 mi South 6.9 mph - N/A   Overcast
8:55 PM 51.1 °F 44.1 °F 77% 30.27 in 10.0 mi South 6.9 mph - N/A   Scattered Clouds
9:55 PM 50.0 °F 44.1 °F 80% 30.28 in 10.0 mi SSW 5.8 mph - N/A   Partly Cloudy
10:55 PM 48.9 °F 44.1 °F 83% 30.27 in 10.0 mi Calm Calm - N/A   Partly Cloudy
11:55 PM 46.9 °F 43.0 °F 86% 30.28 in 10.0 mi SSW 3.5 mph - N/A   Partly Cloudy